Time,TemperatureF,DewpointF,PressureIn,WindDirection,WindDirectionDegrees,WindSpeedMPH,WindSpeedGustMPH,Humidity,HourlyPrecipIn,Conditions,Clouds,dailyrainin,SoftwareType,DateUTC
2013-05-08 00:02:00,54.9,49.2,30.00,North,3,0.0,0.0,81,0.00,,OVC,0.00,WeatherDisplay:10.37,2013-05-08 07:02:00,
2013-05-08 00:07:00,54.8,49.1,30.01,North,2,0.0,0.0,81,0.00,,OVC,0.00,WeatherDisplay:10.37,2013-05-08 07:07:00,
2013-05-08 00:12:00,54.9,49.2,30.01,North,3,0.0,0.0,81,0.00,,OVC,0.00,WeatherDisplay:10.37,2013-05-08 07:12:00,
2013-05-08 00:17:00,54.9,49.2,30.01,North,6,0.0,0.0,81,0.00,,OVC,0.00,WeatherDisplay:10.37,2013-05-08 07:17:00,
2013-05-08 00:22:00,54.8,49.4,30.01,North,5,0.0,0.0,82,0.00,,OVC,0.00,WeatherDisplay:10.37,2013-05-08 07:22:00,
2013-05-08 00:27:00,54.8,49.4,30.01,North,3,0.0,0.0,82,0.00,,OVC,0.00,WeatherDisplay:10.37,2013-05-08 07:27:00,
2013-05-08 00:32:00,54.7,49.3,30.01,North,3,0.0,0.0,82,0.00,,OVC,0.00,WeatherDisplay:10.37,2013-05-08 07:32:00,
2013-05-08 00:37:00,54.6,49.2,30.02,North,3,0.0,0.0,82,0.00,,OVC,0.00,WeatherDisplay:10.37,2013-05-08 07:37:00,
2013-05-08 00:42:00,54.5,48.8,30.02,North,4,0.0,0.0,81,0.00,,OVC,0.00,WeatherDisplay:10.37,2013-05-08 07:42:00,
2013-05-08 00:47:00,54.4,48.7,30.02,North,4,0.0,0.0,81,0.00,,OVC,0.00,WeatherDisplay:10.37,2013-05-08 07:47:00,
2013-05-08 00:52:00,54.4,48.7,30.02,North,3,0.0,0.0,81,0.00,,OVC,0.00,WeatherDisplay:10.37,2013-05-08 07:52:00,
2013-05-08 00:57:00,54.4,49.0,30.02,North,3,0.0,0.0,82,0.00,,OVC,0.00,WeatherDisplay:10.37,2013-05-08 07:57:00,
2013-05-08 01:02:00,54.4,49.0,30.02,North,3,0.0,0.0,82,0.00,CLR,OVC,0.00,WeatherDisplay:10.37,2013-05-08 08:02:00,
2013-05-08 01:07:00,54.4,48.7,30.02,North,5,0.0,0.0,81,0.00,CLR,OVC,0.00,WeatherDisplay:10.37,2013-05-08 08:07:00,
2013-05-08 01:12:00,54.3,48.5,30.02,North,5,0.0,0.0,81,0.00,CLR,OVC,0.00,WeatherDisplay:10.37,2013-05-08 08:12:00,
2013-05-08 01:17:00,54.1,48.4,30.03,North,4,0.0,0.0,81,0.00,CLR,OVC,0.00,WeatherDisplay:10.37,2013-05-08 08:17:00,
2013-05-08 01:22:00,54.0,48.6,30.03,North,5,0.0,0.0,82,0.00,CLR,OVC,0.00,WeatherDisplay:10.37,2013-05-08 08:22:00,
2013-05-08 01:27:00,53.9,48.5,30.03,North,6,0.0,0.0,82,0.00,CLR,OVC,0.00,WeatherDisplay:10.37,2013-05-08 08:27:00,
2013-05-08 01:32:00,53.7,48.0,30.03,North,7,0.0,0.0,81,0.00,CLR,OVC,0.00,WeatherDisplay:10.37,2013-05-08 08:32:00,
2013-05-08 01:37:00,53.5,47.8,30.03,North,5,0.0,0.0,81,0.00,CLR,OVC,0.00,WeatherDisplay:10.37,2013-05-08 08:37:00,
2013-05-08 01:42:00,53.4,48.0,30.03,North,5,0.0,0.0,82,0.00,CLR,OVC,0.00,WeatherDisplay:10.37,2013-05-08 08:42:00,
2013-05-08 01:47:00,53.3,47.9,30.03,North,6,0.0,0.0,82,0.00,CLR,OVC,0.00,WeatherDisplay:10.37,2013-05-08 08:47:00,
2013-05-08 01:52:00,53.1,47.7,30.03,North,6,0.0,0.0,82,0.00,CLR,OVC,0.00,WeatherDisplay:10.37,2013-05-08 08:52:00,
2013-05-08 01:57:00,52.9,47.6,30.04,North,4,0.0,0.0,82,0.00,CLR,OVC,0.00,WeatherDisplay:10.37,2013-05-08 08:57:00,
2013-05-08 02:02:00,52.8,47.4,30.04,North,6,0.0,0.0,82,0.00,CLR,OVC,0.00,WeatherDisplay:10.37,2013-05-08 09:02:00,
2013-05-08 02:07:00,52.7,47.4,30.04,North,7,0.0,0.0,82,0.00,CLR,OVC,0.00,WeatherDisplay:10.37,2013-05-08 09:07:00,
2013-05-08 02:12:00,52.6,47.3,30.04,North,5,0.0,0.0,82,0.00,CLR,OVC,0.00,WeatherDisplay:10.37,2013-05-08 09:12:00,
2013-05-08 02:17:00,52.6,47.2,30.04,North,5,0.0,0.0,82,0.00,CLR,OVC,0.00,WeatherDisplay:10.37,2013-05-08 09:17:00,
2013-05-08 02:22:00,52.4,47.1,30.04,North,6,0.0,0.0,82,0.00,CLR,OVC,0.00,WeatherDisplay:10.37,2013-05-08 09:22:00,
2013-05-08 02:27:00,52.3,47.0,30.04,North,4,0.0,0.0,82,0.00,CLR,OVC,0.00,WeatherDisplay:10.37,2013-05-08 09:27:00,
2013-05-08 02:32:00,52.2,46.9,30.04,North,3,0.0,0.0,82,0.00,CLR,OVC,0.00,WeatherDisplay:10.37,2013-05-08 09:32:00,
2013-05-08 02:37:00,52.2,46.9,30.05,North,5,0.0,0.0,82,0.00,CLR,OVC,0.00,WeatherDisplay:10.37,2013-05-08 09:37:00,
2013-05-08 02:42:00,52.1,46.8,30.05,North,6,0.0,0.0,82,0.00,CLR,OVC,0.00,WeatherDisplay:10.37,2013-05-08 09:42:00,
2013-05-08 02:47:00,52.1,46.8,30.05,North,3,0.0,0.0,82,0.00,CLR,OVC,0.00,WeatherDisplay:10.37,2013-05-08 09:47:00,
2013-05-08 02:52:00,52.1,46.8,30.05,North,3,0.0,0.0,82,0.00,CLR,OVC,0.00,WeatherDisplay:10.37,2013-05-08 09:52:00,
2013-05-08 02:57:00,52.0,46.7,30.05,North,5,0.0,0.0,82,0.00,CLR,OVC,0.00,WeatherDisplay:10.37,2013-05-08 09:57:00,
2013-05-08 03:02:00,52.0,46.6,30.05,North,6,0.0,0.0,82,0.00,CLR,OVC,0.00,WeatherDisplay:10.37,2013-05-08 10:02:00,
2013-05-08 03:07:00,51.9,46.6,30.05,North,4,0.0,0.0,82,0.00,CLR,OVC,0.00,WeatherDisplay:10.37,2013-05-08 10:07:00,
2013-05-08 03:12:00,51.9,46.5,30.05,North,3,0.0,0.0,82,0.00,CLR,OVC,0.00,WeatherDisplay:10.37,2013-05-08 10:12:00,
2013-05-08 03:17:00,51.8,46.4,30.06,North,3,0.0,0.0,82,0.00,CLR,OVC,0.00,WeatherDisplay:10.37,2013-05-08 10:17:00,
2013-05-08 03:22:00,51.7,46.3,30.06,North,5,0.0,0.0,82,0.00,CLR,OVC,0.00,WeatherDisplay:10.37,2013-05-08 10:22:00,
2013-05-08 03:27:00,51.5,46.2,30.06,North,4,0.0,0.0,82,0.00,CLR,OVC,0.00,WeatherDisplay:10.37,2013-05-08 10:27:00,
2013-05-08 03:32:00,51.4,46.1,30.06,North,3,0.0,0.0,82,0.00,CLR,OVC,0.00,WeatherDisplay:10.37,2013-05-08 10:32:00,
2013-05-08 03:37:00,51.3,45.9,30.06,North,6,0.0,0.0,82,0.00,CLR,OVC,0.00,WeatherDisplay:10.37,2013-05-08 10:37:00,
2013-05-08 03:42:00,51.0,45.7,30.07,North,3,0.0,0.0,82,0.00,CLR,OVC,0.00,WeatherDisplay:10.37,2013-05-08 10:42:00,
2013-05-08 03:47:00,50.8,45.5,30.07,North,5,0.0,0.0,82,0.00,CLR,OVC,0.00,WeatherDisplay:10.37,2013-05-08 10:47:00,
2013-05-08 03:52:00,50.5,45.2,30.07,North,4,0.0,0.0,82,0.00,CLR,OVC,0.00,WeatherDisplay:10.37,2013-05-08 10:52:00,
2013-05-08 03:57:00,50.3,45.0,30.07,North,5,0.0,0.0,82,0.00,CLR,OVC,0.00,WeatherDisplay:10.37,2013-05-08 10:57:00,
2013-05-08 04:02:00,50.1,44.8,30.07,North,6,0.0,0.0,82,0.00,CLR,OVC,0.00,WeatherDisplay:10.37,2013-05-08 11:02:00,
2013-05-08 04:07:00,49.9,44.6,30.07,North,4,0.0,0.0,82,0.00,CLR,OVC,0.00,WeatherDisplay:10.37,2013-05-08 11:07:00,
2013-05-08 04:12:00,49.8,44.5,30.07,North,2,0.0,0.0,82,0.00,CLR,OVC,0.00,WeatherDisplay:10.37,2013-05-08 11:12:00,
2013-05-08 04:17:00,49.7,44.4,30.07,North,5,0.0,0.0,82,0.00,CLR,OVC,0.00,WeatherDisplay:10.37,2013-05-08 11:17:00,
2013-05-08 04:22:00,49.6,44.3,30.07,North,6,0.0,0.0,82,0.00,CLR,OVC,0.00,WeatherDisplay:10.37,2013-05-08 11:22:00,
2013-05-08 04:27:00,49.6,44.3,30.07,North,5,0.0,0.0,82,0.00,CLR,OVC,0.00,WeatherDisplay:10.37,2013-05-08 11:27:00,
2013-05-08 04:32:00,49.5,44.2,30.07,North,6,0.0,0.0,82,0.00,CLR,OVC,0.00,WeatherDisplay:10.37,2013-05-08 11:32:00,
2013-05-08 04:37:00,49.5,44.2,30.07,North,6,0.0,0.0,82,0.00,CLR,OVC,0.00,WeatherDisplay:10.37,2013-05-08 11:37:00,
2013-05-08 04:42:00,49.5,44.2,30.08,North,6,0.0,0.0,82,0.00,CLR,OVC,0.00,WeatherDisplay:10.37,2013-05-08 11:42:00,
2013-05-08 04:47:00,49.5,44.2,30.08,North,4,0.0,0.0,82,0.00,CLR,OVC,0.00,WeatherDisplay:10.37,2013-05-08 11:47:00,
2013-05-08 04:52:00,49.5,44.2,30.08,North,5,0.0,0.0,82,0.00,CLR,OVC,0.00,WeatherDisplay:10.37,2013-05-08 11:52:00,
2013-05-08 04:57:00,49.5,44.2,30.08,North,4,0.0,0.0,82,0.00,CLR,OVC,0.00,WeatherDisplay:10.37,2013-05-08 11:57:00,
2013-05-08 05:02:00,49.6,44.3,30.08,North,3,0.0,0.0,82,0.00,,OVC,0.00,WeatherDisplay:10.37,2013-05-08 12:02:00,
2013-05-08 05:07:00,49.7,44.1,30.08,North,3,0.0,0.0,81,0.00,,OVC,0.00,WeatherDisplay:10.37,2013-05-08 12:07:00,
2013-05-08 05:12:00,49.9,44.3,30.08,North,3,0.0,0.0,81,0.00,CLR,OVC,0.00,WeatherDisplay:10.37,2013-05-08 12:12:00,
2013-05-08 05:17:00,50.1,44.5,30.08,North,6,0.0,0.0,81,0.00,CLR,OVC,0.00,WeatherDisplay:10.37,2013-05-08 12:17:00,
2013-05-08 05:22:00,50.1,44.5,30.08,North,6,0.0,0.0,81,0.00,CLR,OVC,0.00,WeatherDisplay:10.37,2013-05-08 12:22:00,
2013-05-08 05:27:00,50.3,44.7,30.08,North,4,0.0,0.0,81,0.00,CLR,OVC,0.00,WeatherDisplay:10.37,2013-05-08 12:27:00,
2013-05-08 05:32:00,50.3,44.7,30.08,North,4,0.0,0.0,81,0.00,CLR,OVC,0.00,WeatherDisplay:10.37,2013-05-08 12:32:00,
2013-05-08 05:37:00,50.4,44.8,30.08,North,3,0.0,0.0,81,0.00,CLR,OVC,0.00,WeatherDisplay:10.37,2013-05-08 12:37:00,
2013-05-08 05:42:00,50.5,44.9,30.08,North,3,0.0,0.0,81,0.00,CLR,OVC,0.00,WeatherDisplay:10.37,2013-05-08 12:42:00,
2013-05-08 05:47:00,50.6,45.0,30.09,North,5,0.0,0.0,81,0.00,CLR,OVC,0.00,WeatherDisplay:10.37,2013-05-08 12:47:00,
2013-05-08 05:52:00,50.6,45.0,30.09,North,5,0.0,0.0,81,0.00,CLR,OVC,0.00,WeatherDisplay:10.37,2013-05-08 12:52:00,
2013-05-08 05:57:00,50.7,45.1,30.09,North,4,0.0,0.0,81,0.00,CLR,OVC,0.00,WeatherDisplay:10.37,2013-05-08 12:57:00,
2013-05-08 06:02:00,50.8,45.2,30.09,North,3,0.0,0.0,81,0.00,CLR,OVC,0.00,WeatherDisplay:10.37,2013-05-08 13:02:00,
2013-05-08 06:07:00,50.9,45.3,30.09,North,4,0.0,0.0,81,0.00,CLR,OVC,0.00,WeatherDisplay:10.37,2013-05-08 13:07:00,
2013-05-08 06:12:00,51.0,45.4,30.09,North,5,0.0,0.0,81,0.00,CLR,OVC,0.00,WeatherDisplay:10.37,2013-05-08 13:12:00,
2013-05-08 06:17:00,51.1,45.4,30.09,North,5,0.0,0.0,81,0.00,CLR,OVC,0.00,WeatherDisplay:10.37,2013-05-08 13:17:00,
2013-05-08 06:22:00,51.2,45.5,30.09,North,6,0.0,0.0,81,0.00,CLR,OVC,0.00,WeatherDisplay:10.37,2013-05-08 13:22:00,
2013-05-08 06:27:00,51.1,45.5,30.10,North,3,0.0,0.0,81,0.00,CLR,OVC,0.00,WeatherDisplay:10.37,2013-05-08 13:27:00,
2013-05-08 06:32:00,51.2,45.6,30.10,North,3,0.0,0.0,81,0.00,CLR,OVC,0.00,WeatherDisplay:10.37,2013-05-08 13:32:00,
2013-05-08 06:37:00,51.3,45.7,30.10,North,5,0.0,0.0,81,0.00,CLR,OVC,0.00,WeatherDisplay:10.37,2013-05-08 13:37:00,
2013-05-08 06:42:00,51.4,45.8,30.10,North,6,0.0,0.0,81,0.00,CLR,OVC,0.00,WeatherDisplay:10.37,2013-05-08 13:42:00,
2013-05-08 06:47:00,51.5,45.9,30.10,North,5,0.0,0.0,81,0.00,CLR,OVC,0.00,WeatherDisplay:10.37,2013-05-08 13:47:00,
2013-05-08 06:52:00,51.7,45.7,30.10,North,4,0.0,0.0,80,0.00,CLR,OVC,0.00,WeatherDisplay:10.37,2013-05-08 13:52:00,
2013-05-08 06:57:00,51.7,45.8,30.10,North,5,0.0,0.0,80,0.00,CLR,OVC,0.00,WeatherDisplay:10.37,2013-05-08 13:57:00,
2013-05-08 07:02:00,51.7,46.1,30.10,North,4,0.0,0.0,81,0.00,CLR,OVC,0.00,WeatherDisplay:10.37,2013-05-08 14:02:00,
2013-05-08 07:07:00,51.6,46.0,30.10,North,3,0.0,0.0,81,0.00,CLR,OVC,0.00,WeatherDisplay:10.37,2013-05-08 14:07:00,
2013-05-08 07:12:00,51.6,46.0,30.11,North,3,0.0,0.0,81,0.00,CLR,OVC,0.00,WeatherDisplay:10.37,2013-05-08 14:12:00,
2013-05-08 07:17:00,51.7,46.1,30.10,North,4,0.0,0.0,81,0.00,CLR,OVC,0.00,WeatherDisplay:10.37,2013-05-08 14:17:00,
2013-05-08 07:22:00,51.8,46.2,30.11,North,4,0.0,0.0,81,0.00,CLR,OVC,0.00,WeatherDisplay:10.37,2013-05-08 14:22:00,
2013-05-08 07:27:00,51.9,46.3,30.11,North,5,0.0,0.0,81,0.00,CLR,OVC,0.00,WeatherDisplay:10.37,2013-05-08 14:27:00,
2013-05-08 07:32:00,52.0,46.3,30.11,North,6,0.0,0.0,81,0.00,CLR,OVC,0.00,WeatherDisplay:10.37,2013-05-08 14:32:00,
2013-05-08 07:37:00,52.1,46.4,30.11,North,5,0.0,0.0,81,0.00,CLR,OVC,0.00,WeatherDisplay:10.37,2013-05-08 14:37:00,
2013-05-08 07:42:00,52.1,46.4,30.11,North,5,0.0,0.0,81,0.00,CLR,OVC,0.00,WeatherDisplay:10.37,2013-05-08 14:42:00,
2013-05-08 07:47:00,52.2,46.5,30.11,North,6,0.0,0.0,81,0.00,CLR,OVC,0.00,WeatherDisplay:10.37,2013-05-08 14:47:00,
2013-05-08 07:52:00,52.3,46.6,30.11,North,4,0.0,0.0,81,0.00,CLR,OVC,0.00,WeatherDisplay:10.37,2013-05-08 14:52:00,
2013-05-08 07:57:00,52.4,46.7,30.11,North,3,0.0,0.0,81,0.00,CLR,OVC,0.00,WeatherDisplay:10.37,2013-05-08 14:57:00,
2013-05-08 08:02:00,52.4,46.8,30.11,North,3,0.0,0.0,81,0.00,CLR,OVC,0.00,WeatherDisplay:10.37,2013-05-08 15:02:00,
2013-05-08 08:07:00,52.6,46.6,30.11,North,6,0.0,0.0,80,0.00,CLR,OVC,0.00,WeatherDisplay:10.37,2013-05-08 15:07:00,
2013-05-08 08:12:00,52.5,46.8,30.11,North,7,0.0,0.0,81,0.00,CLR,OVC,0.00,WeatherDisplay:10.37,2013-05-08 15:12:00,
2013-05-08 08:17:00,52.5,46.8,30.11,North,5,0.0,0.0,81,0.00,CLR,OVC,0.00,WeatherDisplay:10.37,2013-05-08 15:17:00,
2013-05-08 08:22:00,52.5,46.8,30.11,North,6,0.0,0.0,81,0.00,CLR,OVC,0.00,WeatherDisplay:10.37,2013-05-08 15:22:00,
2013-05-08 08:27:00,52.6,47.0,30.12,North,5,0.0,0.0,81,0.00,CLR,OVC,0.00,WeatherDisplay:10.37,2013-05-08 15:27:00,
2013-05-08 08:32:00,52.7,47.0,30.12,North,5,0.0,0.0,81,0.00,CLR,OVC,0.00,WeatherDisplay:10.37,2013-05-08 15:32:00,
2013-05-08 08:37:00,52.8,47.1,30.12,North,4,0.0,0.0,81,0.00,CLR,OVC,0.00,WeatherDisplay:10.37,2013-05-08 15:37:00,
2013-05-08 08:42:00,53.0,47.0,30.12,North,3,0.0,0.0,80,0.00,CLR,OVC,0.00,WeatherDisplay:10.37,2013-05-08 15:42:00,
2013-05-08 08:52:00,53.2,47.2,30.12,North,4,0.0,0.0,80,0.00,CLR,OVC,0.00,WeatherDisplay:10.37,2013-05-08 15:52:00,
2013-05-08 08:57:00,53.2,47.2,30.12,North,5,0.0,0.0,80,0.00,CLR,OVC,0.00,WeatherDisplay:10.37,2013-05-08 15:57:00,
2013-05-08 09:02:00,53.3,47.3,30.12,North,3,0.0,0.0,80,0.00,CLR,OVC,0.00,WeatherDisplay:10.37,2013-05-08 16:02:00,
2013-05-08 09:07:00,53.5,47.5,30.12,North,3,0.0,0.0,80,0.00,CLR,OVC,0.00,WeatherDisplay:10.37,2013-05-08 16:07:00,
2013-05-08 09:12:00,53.6,47.6,30.12,North,4,0.0,0.0,80,0.00,CLR,OVC,0.00,WeatherDisplay:10.37,2013-05-08 16:12:00,
2013-05-08 09:17:00,53.7,47.7,30.13,North,5,0.0,0.0,80,0.00,CLR,OVC,0.00,WeatherDisplay:10.37,2013-05-08 16:17:00,
2013-05-08 09:22:00,53.8,48.1,30.13,North,6,0.0,0.0,81,0.00,CLR,OVC,0.00,WeatherDisplay:10.37,2013-05-08 16:22:00,
2013-05-08 09:27:00,53.8,48.1,30.13,North,4,0.0,0.0,81,0.00,CLR,OVC,0.00,WeatherDisplay:10.37,2013-05-08 16:27:00,
2013-05-08 09:32:00,53.8,48.1,30.13,North,3,0.0,0.0,81,0.00,CLR,OVC,0.00,WeatherDisplay:10.37,2013-05-08 16:32:00,
2013-05-08 09:37:00,54.0,48.0,30.13,North,6,0.0,0.0,80,0.00,CLR,OVC,0.00,WeatherDisplay:10.37,2013-05-08 16:37:00,
2013-05-08 09:42:00,54.1,48.4,30.13,North,5,0.0,0.0,81,0.00,CLR,OVC,0.00,WeatherDisplay:10.37,2013-05-08 16:42:00,
2013-05-08 09:47:00,54.1,48.4,30.13,North,3,0.0,0.0,81,0.00,CLR,OVC,0.00,WeatherDisplay:10.37,2013-05-08 16:47:00,
2013-05-08 09:52:00,54.2,48.4,30.13,North,3,0.0,0.0,81,0.00,CLR,OVC,0.00,WeatherDisplay:10.37,2013-05-08 16:52:00,
2013-05-08 09:57:00,54.1,48.4,30.13,North,5,0.0,0.0,81,0.00,CLR,OVC,0.00,WeatherDisplay:10.37,2013-05-08 16:57:00,
2013-05-08 10:02:00,54.1,48.4,30.13,North,5,0.0,0.0,81,0.00,CLR,OVC,0.00,WeatherDisplay:10.37,2013-05-08 17:02:00,
2013-05-08 10:07:00,54.1,48.4,30.13,North,2,0.0,0.0,81,0.00,CLR,OVC,0.00,WeatherDisplay:10.37,2013-05-08 17:07:00,
2013-05-08 10:12:00,54.2,48.5,30.13,North,1,0.0,0.0,81,0.00,CLR,OVC,0.00,WeatherDisplay:10.37,2013-05-08 17:12:00,
2013-05-08 10:17:00,54.2,48.5,30.13,North,5,0.0,0.0,81,0.00,CLR,OVC,0.00,WeatherDisplay:10.37,2013-05-08 17:17:00,
2013-05-08 10:22:00,54.5,48.8,30.14,North,4,0.0,0.0,81,0.00,CLR,OVC,0.00,WeatherDisplay:10.37,2013-05-08 17:22:00,
2013-05-08 10:27:00,54.6,48.9,30.14,North,3,0.0,0.0,81,0.00,CLR,OVC,0.00,WeatherDisplay:10.37,2013-05-08 17:27:00,
2013-05-08 10:32:00,54.6,48.9,30.14,North,3,0.0,0.0,81,0.00,CLR,OVC,0.00,WeatherDisplay:10.37,2013-05-08 17:32:00,
2013-05-08 10:37:00,54.9,49.2,30.14,North,6,0.0,0.0,81,0.00,CLR,OVC,0.00,WeatherDisplay:10.37,2013-05-08 17:37:00,
2013-05-08 10:42:00,55.1,49.4,30.14,North,5,0.0,0.0,81,0.00,CLR,OVC,0.00,WeatherDisplay:10.37,2013-05-08 17:42:00,
2013-05-08 10:47:00,55.3,49.6,30.14,North,3,0.0,0.0,81,0.00,CLR,OVC,0.00,WeatherDisplay:10.37,2013-05-08 17:47:00,
2013-05-08 10:52:00,55.6,49.8,30.14,North,3,0.0,0.0,81,0.00,CLR,OVC,0.00,WeatherDisplay:10.37,2013-05-08 17:52:00,
2013-05-08 10:57:00,55.7,50.0,30.14,North,3,0.0,0.0,81,0.00,CLR,OVC,0.00,WeatherDisplay:10.37,2013-05-08 17:57:00,
2013-05-08 11:02:00,55.7,50.0,30.14,North,5,0.0,0.0,81,0.00,CLR,OVC,0.00,WeatherDisplay:10.37,2013-05-08 18:02:00,
2013-05-08 11:07:00,56.0,50.3,30.14,North,3,0.0,0.0,81,0.00,CLR,OVC,0.00,WeatherDisplay:10.37,2013-05-08 18:07:00,
2013-05-08 11:12:00,56.1,50.3,30.14,North,1,0.0,0.0,81,0.00,CLR,OVC,0.00,WeatherDisplay:10.37,2013-05-08 18:12:00,
2013-05-08 11:17:00,56.1,50.3,30.14,North,4,0.0,0.0,81,0.00,CLR,OVC,0.00,WeatherDisplay:10.37,2013-05-08 18:17:00,
2013-05-08 11:22:00,56.2,50.5,30.14,North,4,0.0,0.0,81,0.00,CLR,OVC,0.00,WeatherDisplay:10.37,2013-05-08 18:22:00,
2013-05-08 11:27:00,56.4,50.6,30.14,North,2,0.0,0.0,81,0.00,CLR,OVC,0.00,WeatherDisplay:10.37,2013-05-08 18:27:00,
2013-05-08 11:32:00,56.5,50.7,30.14,North,1,0.0,0.0,81,0.00,CLR,OVC,0.00,WeatherDisplay:10.37,2013-05-08 18:32:00,
2013-05-08 11:37:00,56.6,50.8,30.14,North,3,0.0,0.0,81,0.00,CLR,OVC,0.00,WeatherDisplay:10.37,2013-05-08 18:37:00,
2013-05-08 11:42:00,56.7,50.9,30.14,North,3,0.0,0.0,81,0.00,CLR,OVC,0.00,WeatherDisplay:10.37,2013-05-08 18:42:00,
2013-05-08 11:47:00,56.9,51.1,30.14,North,3,0.0,0.0,81,0.00,CLR,OVC,0.00,WeatherDisplay:10.37,2013-05-08 18:47:00,
2013-05-08 11:52:00,57.1,51.3,30.14,North,3,0.0,0.0,81,0.00,CLR,OVC,0.00,WeatherDisplay:10.37,2013-05-08 18:52:00,
2013-05-08 11:57:00,57.3,51.5,30.14,North,3,0.0,0.0,81,0.00,CLR,OVC,0.00,WeatherDisplay:10.37,2013-05-08 18:57:00,
2013-05-08 12:02:00,57.2,51.4,30.14,North,3,0.0,0.0,81,0.00,CLR,OVC,0.00,WeatherDisplay:10.37,2013-05-08 19:02:00,
2013-05-08 12:07:00,57.2,51.4,30.14,North,3,0.0,0.0,81,0.00,CLR,OVC,0.00,WeatherDisplay:10.37,2013-05-08 19:07:00,
2013-05-08 12:12:00,57.3,51.5,30.14,North,2,0.0,0.0,81,0.00,CLR,OVC,0.00,WeatherDisplay:10.37,2013-05-08 19:12:00,
2013-05-08 12:17:00,57.4,51.3,30.14,North,3,0.0,0.0,80,0.00,CLR,OVC,0.00,WeatherDisplay:10.37,2013-05-08 19:17:00,
2013-05-08 12:22:00,57.4,51.6,30.14,North,2,0.0,0.0,81,0.00,CLR,OVC,0.00,WeatherDisplay:10.37,2013-05-08 19:22:00,
2013-05-08 12:27:00,57.5,51.7,30.14,North,2,0.0,0.0,81,0.00,CLR,OVC,0.00,WeatherDisplay:10.37,2013-05-08 19:27:00,
2013-05-08 12:32:00,57.3,51.2,30.14,North,3,0.0,0.0,80,0.00,CLR,OVC,0.00,WeatherDisplay:10.37,2013-05-08 19:32:00,
2013-05-08 12:37:00,57.3,51.2,30.14,North,3,0.0,0.0,80,0.00,CLR,OVC,0.00,WeatherDisplay:10.37,2013-05-08 19:37:00,
2013-05-08 12:42:00,57.4,51.3,30.14,North,2,0.0,0.0,80,0.00,CLR,OVC,0.00,WeatherDisplay:10.37,2013-05-08 19:42:00,
2013-05-08 12:47:00,57.6,51.8,30.14,North,2,0.0,0.0,81,0.00,CLR,OVC,0.00,WeatherDisplay:10.37,2013-05-08 19:47:00,
2013-05-08 12:52:00,57.7,51.6,30.14,North,2,0.0,0.0,80,0.00,CLR,OVC,0.00,WeatherDisplay:10.37,2013-05-08 19:52:00,
2013-05-08 12:57:00,57.8,51.7,30.14,North,3,0.0,0.0,80,0.00,CLR,OVC,0.00,WeatherDisplay:10.37,2013-05-08 19:57:00,
2013-05-08 13:02:00,57.9,51.8,30.14,North,2,0.0,0.0,80,0.00,CLR,OVC,0.00,WeatherDisplay:10.37,2013-05-08 20:02:00,
2013-05-08 13:07:00,58.0,51.9,30.14,North,1,0.0,0.0,80,0.00,CLR,OVC,0.00,WeatherDisplay:10.37,2013-05-08 20:07:00,
2013-05-08 13:12:00,58.1,52.0,30.14,North,1,0.0,0.0,80,0.00,CLR,OVC,0.00,WeatherDisplay:10.37,2013-05-08 20:12:00,
2013-05-08 13:17:00,58.2,52.1,30.14,North,1,0.0,0.0,80,0.00,CLR,OVC,0.00,WeatherDisplay:10.37,2013-05-08 20:17:00,
2013-05-08 13:22:00,58.1,51.6,30.14,North,1,0.0,0.0,79,0.00,CLR,OVC,0.00,WeatherDisplay:10.37,2013-05-08 20:22:00,
2013-05-08 13:27:00,58.1,51.6,30.14,North,3,0.0,0.0,79,0.00,CLR,OVC,0.00,WeatherDisplay:10.37,2013-05-08 20:27:00,
2013-05-08 13:32:00,58.2,52.1,30.14,North,3,0.0,0.0,80,0.00,CLR,OVC,0.00,WeatherDisplay:10.37,2013-05-08 20:32:00,
2013-05-08 13:37:00,58.4,52.3,30.14,North,1,0.0,0.0,80,0.00,CLR,OVC,0.00,WeatherDisplay:10.37,2013-05-08 20:37:00,
2013-05-08 13:42:00,58.4,51.9,30.14,North,1,0.0,0.0,79,0.00,CLR,OVC,0.00,WeatherDisplay:10.37,2013-05-08 20:42:00,
2013-05-08 13:47:00,58.4,52.3,30.14,North,3,0.0,0.0,80,0.00,CLR,OVC,0.00,WeatherDisplay:10.37,2013-05-08 20:47:00,
2013-05-08 13:52:00,58.6,52.4,30.14,North,3,0.0,0.0,80,0.00,CLR,OVC,0.00,WeatherDisplay:10.37,2013-05-08 20:52:00,
2013-05-08 13:57:00,58.7,52.5,30.14,North,1,0.0,0.0,80,0.00,CLR,OVC,0.00,WeatherDisplay:10.37,2013-05-08 20:57:00,
2013-05-08 14:02:00,58.8,52.6,30.14,North,1,0.0,0.0,80,0.00,CLR,OVC,0.00,WeatherDisplay:10.37,2013-05-08 21:02:00,
2013-05-08 14:07:00,58.7,52.2,30.14,North,2,0.0,0.0,79,0.00,CLR,OVC,0.00,WeatherDisplay:10.37,2013-05-08 21:07:00,
2013-05-08 14:12:00,58.8,52.3,30.14,North,2,0.0,0.0,79,0.00,CLR,OVC,0.00,WeatherDisplay:10.37,2013-05-08 21:12:00,
2013-05-08 14:17:00,59.0,52.8,30.14,North,3,0.0,0.0,80,0.00,CLR,OVC,0.00,WeatherDisplay:10.37,2013-05-08 21:17:00,
2013-05-08 14:22:00,59.0,52.5,30.14,North,3,0.0,0.0,79,0.00,CLR,OVC,0.00,WeatherDisplay:10.37,2013-05-08 21:22:00,
2013-05-08 14:27:00,59.1,52.6,30.14,North,1,0.0,0.0,79,0.00,CLR,OVC,0.00,WeatherDisplay:10.37,2013-05-08 21:27:00,
2013-05-08 14:32:00,59.1,52.3,30.14,North,3,0.0,0.0,78,0.00,CLR,OVC,0.00,WeatherDisplay:10.37,2013-05-08 21:32:00,
2013-05-08 14:37:00,59.2,52.3,30.14,North,3,0.0,0.0,78,0.00,CLR,OVC,0.00,WeatherDisplay:10.37,2013-05-08 21:37:00,
2013-05-08 14:42:00,59.4,52.9,30.15,North,1,0.0,0.0,79,0.00,CLR,OVC,0.00,WeatherDisplay:10.37,2013-05-08 21:42:00,
2013-05-08 14:47:00,59.5,52.6,30.14,North,1,0.0,0.0,78,0.00,CLR,OVC,0.00,WeatherDisplay:10.37,2013-05-08 21:47:00,
2013-05-08 14:52:00,59.6,52.7,30.15,North,1,0.0,0.0,78,0.00,CLR,OVC,0.00,WeatherDisplay:10.37,2013-05-08 21:52:00,
2013-05-08 14:57:00,59.6,52.4,30.14,North,3,0.0,0.0,77,0.00,CLR,OVC,0.00,WeatherDisplay:10.37,2013-05-08 21:57:00,
2013-05-08 15:02:00,59.5,52.3,30.14,North,3,0.0,0.0,77,0.00,CLR,OVC,0.00,WeatherDisplay:10.37,2013-05-08 22:02:00,
2013-05-08 15:07:00,59.5,52.3,30.14,North,1,0.0,0.0,77,0.00,CLR,OVC,0.00,WeatherDisplay:10.37,2013-05-08 22:07:00,
2013-05-08 15:12:00,59.5,52.7,30.15,North,1,0.0,0.0,78,0.00,CLR,OVC,0.00,WeatherDisplay:10.37,2013-05-08 22:12:00,
2013-05-08 15:17:00,59.6,52.7,30.14,North,1,0.0,0.0,78,0.00,CLR,OVC,0.00,WeatherDisplay:10.37,2013-05-08 22:17:00,
2013-05-08 15:22:00,59.6,52.4,30.14,North,1,0.0,0.0,77,0.00,CLR,OVC,0.00,WeatherDisplay:10.37,2013-05-08 22:22:00,
2013-05-08 15:27:00,59.8,52.9,30.14,North,1,0.0,0.0,78,0.00,CLR,OVC,0.00,WeatherDisplay:10.37,2013-05-08 22:27:00,
2013-05-08 15:32:00,59.8,52.6,30.14,North,1,0.0,0.0,77,0.00,CLR,OVC,0.00,WeatherDisplay:10.37,2013-05-08 22:32:00,
2013-05-08 15:37:00,60.0,52.8,30.14,North,2,0.0,0.0,77,0.00,CLR,OVC,0.00,WeatherDisplay:10.37,2013-05-08 22:37:00,
2013-05-08 15:42:00,60.1,53.6,30.14,North,1,0.0,0.0,79,0.00,CLR,OVC,0.00,WeatherDisplay:10.37,2013-05-08 22:42:00,
2013-05-08 15:47:00,60.1,52.8,30.14,North,3,0.0,0.0,77,0.00,CLR,OVC,0.00,WeatherDisplay:10.37,2013-05-08 22:47:00,
2013-05-08 15:52:00,60.2,53.6,30.14,North,2,0.0,0.0,79,0.00,CLR,OVC,0.00,WeatherDisplay:10.37,2013-05-08 22:52:00,
2013-05-08 15:57:00,60.2,53.3,30.13,North,2,0.0,0.0,78,0.00,CLR,OVC,0.00,WeatherDisplay:10.37,2013-05-08 22:57:00,
2013-05-08 16:02:00,60.5,53.6,30.13,North,2,0.0,0.0,78,0.00,CLR,OVC,0.00,WeatherDisplay:10.37,2013-05-08 23:02:00,
2013-05-08 16:07:00,60.6,53.7,30.13,North,1,0.0,0.0,78,0.00,CLR,OVC,0.00,WeatherDisplay:10.37,2013-05-08 23:07:00,
2013-05-08 16:12:00,60.8,53.5,30.13,North,1,0.0,0.0,77,0.00,CLR,OVC,0.00,WeatherDisplay:10.37,2013-05-08 23:12:00,
2013-05-08 16:17:00,60.9,53.3,30.13,North,1,0.0,0.0,76,0.00,CLR,OVC,0.00,WeatherDisplay:10.37,2013-05-08 23:17:00,
2013-05-08 16:22:00,61.1,53.8,30.13,North,1,0.0,0.0,77,0.00,CLR,OVC,0.00,WeatherDisplay:10.37,2013-05-08 23:22:00,
2013-05-08 16:27:00,61.3,53.7,30.13,North,3,0.0,0.0,76,0.00,CLR,OVC,0.00,WeatherDisplay:10.37,2013-05-08 23:27:00,
2013-05-08 16:32:00,61.3,53.3,30.13,North,3,0.0,0.0,75,0.00,CLR,OVC,0.00,WeatherDisplay:10.37,2013-05-08 23:32:00,
2013-05-08 16:37:00,61.4,53.8,30.13,North,3,0.0,0.0,76,0.00,CLR,OVC,0.00,WeatherDisplay:10.37,2013-05-08 23:37:00,
2013-05-08 16:42:00,61.5,53.9,30.13,North,2,0.0,0.0,76,0.00,CLR,OVC,0.00,WeatherDisplay:10.37,2013-05-08 23:42:00,
2013-05-08 16:47:00,61.7,54.4,30.13,North,2,0.0,0.0,77,0.00,CLR,OVC,0.00,WeatherDisplay:10.37,2013-05-08 23:47:00,
2013-05-08 16:52:00,62.0,54.7,30.13,North,2,0.0,0.0,77,0.00,CLR,OVC,0.00,WeatherDisplay:10.37,2013-05-08 23:52:00,
2013-05-08 16:57:00,62.2,53.8,30.13,North,1,0.0,0.0,74,0.00,CLR,OVC,0.00,WeatherDisplay:10.37,2013-05-08 23:57:00,
2013-05-08 17:02:00,62.7,54.6,30.13,North,1,0.0,0.0,75,0.00,CLR,OVC,0.00,WeatherDisplay:10.37,2013-05-09 00:02:00,
2013-05-08 17:07:00,63.6,55.9,30.13,North,3,0.0,0.0,76,0.00,CLR,OVC,0.00,WeatherDisplay:10.37,2013-05-09 00:07:00,
2013-05-08 17:12:00,63.9,55.8,30.13,North,2,0.0,0.0,75,0.00,CLR,OVC,0.00,WeatherDisplay:10.37,2013-05-09 00:12:00,
2013-05-08 17:17:00,64.1,55.7,30.13,North,3,0.0,0.0,74,0.00,CLR,OVC,0.00,WeatherDisplay:10.37,2013-05-09 00:17:00,
2013-05-08 17:22:00,64.5,54.9,30.13,North,3,0.0,0.0,71,0.00,CLR,OVC,0.00,WeatherDisplay:10.37,2013-05-09 00:22:00,
2013-05-08 17:27:00,64.9,55.2,30.13,North,1,0.0,0.0,71,0.00,CLR,OVC,0.00,WeatherDisplay:10.37,2013-05-09 00:27:00,
2013-05-08 17:32:00,65.5,56.6,30.13,North,1,0.0,0.0,73,0.00,CLR,OVC,0.00,WeatherDisplay:10.37,2013-05-09 00:32:00,
2013-05-08 17:37:00,66.2,56.9,30.12,North,1,0.0,0.0,72,0.00,CLR,OVC,0.00,WeatherDisplay:10.37,2013-05-09 00:37:00,
2013-05-08 17:42:00,66.8,56.7,30.12,North,1,0.0,0.0,70,0.00,CLR,OVC,0.00,WeatherDisplay:10.37,2013-05-09 00:42:00,
2013-05-08 17:47:00,67.1,56.2,30.12,North,1,0.0,0.0,68,0.00,CLR,OVC,0.00,WeatherDisplay:10.37,2013-05-09 00:47:00,
2013-05-08 17:52:00,67.2,55.9,30.12,North,1,0.0,0.0,67,0.00,CLR,OVC,0.00,WeatherDisplay:10.37,2013-05-09 00:52:00,
2013-05-08 17:57:00,67.0,56.1,30.12,North,3,0.0,0.0,68,0.00,CLR,OVC,0.00,WeatherDisplay:10.37,2013-05-09 00:57:00,
2013-05-08 18:02:00,66.4,55.6,30.12,North,3,0.0,0.0,68,0.00,CLR,OVC,0.00,WeatherDisplay:10.37,2013-05-09 01:02:00,
2013-05-08 18:07:00,65.7,55.2,30.12,North,1,0.0,0.0,69,0.00,CLR,OVC,0.00,WeatherDisplay:10.37,2013-05-09 01:07:00,
2013-05-08 18:12:00,65.1,54.7,30.12,North,1,0.0,0.0,69,0.00,CLR,OVC,0.00,WeatherDisplay:10.37,2013-05-09 01:12:00,
2013-05-08 18:17:00,64.5,54.9,30.11,North,1,0.0,0.0,71,0.00,CLR,OVC,0.00,WeatherDisplay:10.37,2013-05-09 01:17:00,
2013-05-08 18:22:00,63.9,54.7,30.11,North,1,0.0,0.0,72,0.00,CLR,OVC,0.00,WeatherDisplay:10.37,2013-05-09 01:22:00,
2013-05-08 18:27:00,63.4,54.6,30.11,North,2,0.0,0.0,73,0.00,CLR,OVC,0.00,WeatherDisplay:10.37,2013-05-09 01:27:00,
2013-05-08 18:32:00,63.0,54.2,30.11,North,1,0.0,0.0,73,0.00,CLR,OVC,0.00,WeatherDisplay:10.37,2013-05-09 01:32:00,
2013-05-08 18:37:00,62.7,54.3,30.11,North,1,0.0,0.0,74,0.00,CLR,OVC,0.00,WeatherDisplay:10.37,2013-05-09 01:37:00,
2013-05-08 18:42:00,62.4,54.0,30.11,North,1,0.0,0.0,74,0.00,CLR,OVC,0.00,WeatherDisplay:10.37,2013-05-09 01:42:00,
2013-05-08 18:47:00,62.1,53.7,30.11,North,2,0.0,0.0,74,0.00,CLR,OVC,0.00,WeatherDisplay:10.37,2013-05-09 01:47:00,
2013-05-08 18:52:00,61.7,53.7,30.11,North,2,0.0,0.0,75,0.00,CLR,OVC,0.00,WeatherDisplay:10.37,2013-05-09 01:52:00,
2013-05-08 18:57:00,61.5,53.5,30.11,North,1,0.0,0.0,75,0.00,CLR,OVC,0.00,WeatherDisplay:10.37,2013-05-09 01:57:00,
2013-05-08 19:02:00,61.3,53.7,30.10,North,1,0.0,0.0,76,0.00,CLR,OVC,0.00,WeatherDisplay:10.37,2013-05-09 02:02:00,
2013-05-08 19:07:00,61.1,53.5,30.11,North,1,0.0,0.0,76,0.00,CLR,OVC,0.00,WeatherDisplay:10.37,2013-05-09 02:07:00,
2013-05-08 19:12:00,60.8,53.2,30.11,North,1,0.0,0.0,76,0.00,CLR,OVC,0.00,WeatherDisplay:10.37,2013-05-09 02:12:00,
2013-05-08 19:17:00,60.7,53.4,30.11,North,1,0.0,0.0,77,0.00,CLR,OVC,0.00,WeatherDisplay:10.37,2013-05-09 02:17:00,
2013-05-08 19:22:00,60.5,53.3,30.11,North,1,0.0,0.0,77,0.00,CLR,OVC,0.00,WeatherDisplay:10.37,2013-05-09 02:22:00,
2013-05-08 19:27:00,60.2,53.0,30.11,North,1,0.0,0.0,77,0.00,CLR,OVC,0.00,WeatherDisplay:10.37,2013-05-09 02:27:00,
2013-05-08 19:32:00,59.9,52.7,30.11,North,2,0.0,0.0,77,0.00,CLR,OVC,0.00,WeatherDisplay:10.37,2013-05-09 02:32:00,
2013-05-08 19:37:00,59.6,52.4,30.11,North,2,0.0,0.0,77,0.00,CLR,OVC,0.00,WeatherDisplay:10.37,2013-05-09 02:37:00,
2013-05-08 19:42:00,59.5,52.6,30.11,North,1,0.0,0.0,78,0.00,CLR,OVC,0.00,WeatherDisplay:10.37,2013-05-09 02:42:00,
2013-05-08 19:47:00,59.4,52.5,30.11,North,2,0.0,0.0,78,0.00,CLR,OVC,0.00,WeatherDisplay:10.37,2013-05-09 02:47:00,
2013-05-08 19:52:00,59.1,52.2,30.11,North,3,0.0,0.0,78,0.00,CLR,OVC,0.00,WeatherDisplay:10.37,2013-05-09 02:52:00,
2013-05-08 19:57:00,58.9,52.4,30.11,North,3,0.0,0.0,79,0.00,CLR,OVC,0.00,WeatherDisplay:10.37,2013-05-09 02:57:00,
2013-05-08 20:02:00,58.7,52.2,30.11,North,1,0.0,0.0,79,0.00,CLR,OVC,0.00,WeatherDisplay:10.37,2013-05-09 03:02:00,
2013-05-08 20:07:00,58.4,52.0,30.11,North,3,0.0,0.0,79,0.00,CLR,OVC,0.00,WeatherDisplay:10.37,2013-05-09 03:07:00,
2013-05-08 20:12:00,58.2,51.7,30.11,North,5,0.0,0.0,79,0.00,CLR,OVC,0.00,WeatherDisplay:10.37,2013-05-09 03:12:00,
2013-05-08 20:17:00,58.0,51.9,30.11,North,4,0.0,0.0,80,0.00,CLR,OVC,0.00,WeatherDisplay:10.37,2013-05-09 03:17:00,
2013-05-08 20:22:00,57.8,51.6,30.11,North,2,0.0,0.0,80,0.00,CLR,OVC,0.00,WeatherDisplay:10.37,2013-05-09 03:22:00,
2013-05-08 20:27:00,57.5,51.4,30.11,North,4,0.0,0.0,80,0.00,CLR,OVC,0.00,WeatherDisplay:10.37,2013-05-09 03:27:00,
2013-05-08 20:32:00,57.4,51.3,30.11,North,4,0.0,0.0,80,0.00,CLR,OVC,0.00,WeatherDisplay:10.37,2013-05-09 03:32:00,
2013-05-08 20:37:00,57.2,51.1,30.11,North,2,0.0,0.0,80,0.00,CLR,OVC,0.00,WeatherDisplay:10.37,2013-05-09 03:37:00,
2013-05-08 20:42:00,56.9,50.8,30.11,North,2,0.0,0.0,80,0.00,CLR,OVC,0.00,WeatherDisplay:10.37,2013-05-09 03:42:00,
2013-05-08 20:47:00,56.7,50.6,30.11,North,3,0.0,0.0,80,0.00,CLR,OVC,0.00,WeatherDisplay:10.37,2013-05-09 03:47:00,
2013-05-08 20:52:00,56.6,50.5,30.12,North,3,0.0,0.0,80,0.00,CLR,OVC,0.00,WeatherDisplay:10.37,2013-05-09 03:52:00,
2013-05-08 20:57:00,56.5,50.4,30.12,North,3,0.0,0.0,80,0.00,CLR,OVC,0.00,WeatherDisplay:10.37,2013-05-09 03:57:00,
2013-05-08 21:02:00,56.3,50.2,30.12,North,5,0.0,0.0,80,0.00,,OVC,0.00,WeatherDisplay:10.37,2013-05-09 04:02:00,
2013-05-08 21:07:00,56.2,50.4,30.12,North,3,0.0,0.0,81,0.00,,OVC,0.00,WeatherDisplay:10.37,2013-05-09 04:07:00,
2013-05-08 21:12:00,56.0,50.3,30.12,North,1,0.0,0.0,81,0.00,,OVC,0.00,WeatherDisplay:10.37,2013-05-09 04:12:00,
2013-05-08 21:17:00,55.9,50.2,30.12,North,1,0.0,0.0,81,0.00,,OVC,0.00,WeatherDisplay:10.37,2013-05-09 04:17:00,
2013-05-08 21:22:00,55.7,50.0,30.13,North,1,0.0,0.0,81,0.00,,OVC,0.00,WeatherDisplay:10.37,2013-05-09 04:22:00,
2013-05-08 21:27:00,55.5,49.8,30.13,North,4,0.0,0.0,81,0.00,,OVC,0.00,WeatherDisplay:10.37,2013-05-09 04:27:00,
2013-05-08 21:32:00,55.2,49.5,30.13,North,3,0.0,0.0,81,0.00,,OVC,0.00,WeatherDisplay:10.37,2013-05-09 04:32:00,
2013-05-08 21:37:00,55.0,49.2,30.13,North,3,0.0,0.0,81,0.00,,OVC,0.00,WeatherDisplay:10.37,2013-05-09 04:37:00,
2013-05-08 21:42:00,54.8,49.1,30.13,North,4,0.0,0.0,81,0.00,,OVC,0.00,WeatherDisplay:10.37,2013-05-09 04:42:00,
2013-05-08 21:47:00,54.6,48.9,30.13,North,3,0.0,0.0,81,0.00,,OVC,0.00,WeatherDisplay:10.37,2013-05-09 04:47:00,
2013-05-08 21:52:00,54.6,48.9,30.13,North,2,0.0,0.0,81,0.00,,OVC,0.00,WeatherDisplay:10.37,2013-05-09 04:52:00,
2013-05-08 21:57:00,54.5,48.7,30.14,North,3,0.0,0.0,81,0.00,,OVC,0.00,WeatherDisplay:10.37,2013-05-09 04:57:00,
2013-05-08 22:02:00,54.3,48.6,30.14,North,2,0.0,0.0,81,0.00,,OVC,0.00,WeatherDisplay:10.37,2013-05-09 05:02:00,
2013-05-08 22:07:00,54.1,48.4,30.14,North,5,0.0,0.0,81,0.00,,OVC,0.00,WeatherDisplay:10.37,2013-05-09 05:07:00,
2013-05-08 22:12:00,53.9,48.2,30.14,North,6,0.0,0.0,81,0.00,,OVC,0.00,WeatherDisplay:10.37,2013-05-09 05:12:00,
2013-05-08 22:17:00,53.8,48.1,30.14,North,4,0.0,0.0,81,0.00,,OVC,0.00,WeatherDisplay:10.37,2013-05-09 05:17:00,
2013-05-08 22:22:00,53.6,47.9,30.14,North,3,0.0,0.0,81,0.00,,OVC,0.00,WeatherDisplay:10.37,2013-05-09 05:22:00,
2013-05-08 22:27:00,53.5,47.8,30.14,North,4,0.0,0.0,81,0.00,,OVC,0.00,WeatherDisplay:10.37,2013-05-09 05:27:00,
2013-05-08 22:32:00,53.4,47.7,30.14,North,3,0.0,0.0,81,0.00,,OVC,0.00,WeatherDisplay:10.37,2013-05-09 05:32:00,
2013-05-08 22:37:00,53.3,47.6,30.14,North,4,0.0,0.0,81,0.00,,OVC,0.00,WeatherDisplay:10.37,2013-05-09 05:37:00,
2013-05-08 22:42:00,53.2,47.5,30.14,North,6,0.0,0.0,81,0.00,,OVC,0.00,WeatherDisplay:10.37,2013-05-09 05:42:00,
2013-05-08 22:47:00,53.1,47.4,30.14,North,3,0.0,0.0,81,0.00,,OVC,0.00,WeatherDisplay:10.37,2013-05-09 05:47:00,
2013-05-08 22:52:00,53.0,47.3,30.14,North,4,0.0,0.0,81,0.00,,OVC,0.00,WeatherDisplay:10.37,2013-05-09 05:52:00,
2013-05-08 22:57:00,53.0,47.3,30.14,North,6,0.0,0.0,81,0.00,,OVC,0.00,WeatherDisplay:10.37,2013-05-09 05:57:00,
2013-05-08 23:02:00,53.0,47.3,30.14,North,3,0.0,0.0,81,0.00,,OVC,0.00,WeatherDisplay:10.37,2013-05-09 06:02:00,
2013-05-08 23:07:00,53.0,47.3,30.14,North,3,0.0,0.0,81,0.00,,OVC,0.00,WeatherDisplay:10.37,2013-05-09 06:07:00,
2013-05-08 23:12:00,52.9,47.2,30.14,North,4,0.0,0.0,81,0.00,,OVC,0.00,WeatherDisplay:10.37,2013-05-09 06:12:00,
2013-05-08 23:17:00,52.8,47.1,30.15,North,6,0.0,0.0,81,0.00,,OVC,0.00,WeatherDisplay:10.37,2013-05-09 06:17:00,
2013-05-08 23:22:00,52.7,47.0,30.15,North,7,0.0,0.0,81,0.00,,OVC,0.00,WeatherDisplay:10.37,2013-05-09 06:22:00,
2013-05-08 23:27:00,52.7,47.0,30.15,North,6,0.0,0.0,81,0.00,,OVC,0.00,WeatherDisplay:10.37,2013-05-09 06:27:00,
2013-05-08 23:32:00,52.7,47.0,30.15,North,3,0.0,0.0,81,0.00,,OVC,0.00,WeatherDisplay:10.37,2013-05-09 06:32:00,
2013-05-08 23:37:00,52.8,46.8,30.15,North,2,0.0,0.0,80,0.00,,OVC,0.00,WeatherDisplay:10.37,2013-05-09 06:37:00,
2013-05-08 23:42:00,52.8,46.8,30.15,North,3,0.0,0.0,80,0.00,,OVC,0.00,WeatherDisplay:10.37,2013-05-09 06:42:00,
2013-05-08 23:47:00,52.7,46.7,30.15,North,6,0.0,0.0,80,0.00,,OVC,0.00,WeatherDisplay:10.37,2013-05-09 06:47:00,
2013-05-08 23:52:00,52.7,47.0,30.15,North,4,0.0,0.0,81,0.00,,OVC,0.00,WeatherDisplay:10.37,2013-05-09 06:52:00,
2013-05-08 23:57:00,52.6,46.6,30.15,North,6,0.0,0.0,80,0.00,,OVC,0.00,WeatherDisplay:10.37,2013-05-09 06:57:00,